Flag for China Weather past 2 weeks in Taiyuan, Shanxi, China

Now
68 °F

Passing clouds.


Feels Like: 68 °F
Forecast: 52 / 78 °F
Wind: 3 mph from Northeast

Location: Taiyuan Airport

Current Time: Sep 2, 2014 at 8:44:52 PM

Latest Report: Sep 2, 2014 at 8:00 PM


Visibility: N/A

Pressure: 29.95 "Hg

Humidity: 49%

Dew point: 48 °F

Location of TaiyuanLocation

Historic Weather in Taiyuan — Graph

°F

Taiyuan temperature yesterday

Maximum temperature yesterday: 77 °F (at 12:30 PM)
Minimum temperature yesterday: 64 °F (at 5:00 AM)
Average temperature yesterday: 71 °F

Past Weeks' High & Low Weather Summary

 TemperatureHumidityPressure
High91 °F (Aug 21, 2:30 PM)94% (Aug 24, 5:30 AM)30.09 "Hg (Aug 24, 5:30 AM)
Low52 °F (Aug 26, 5:30 AM)13% (Aug 25, 2:00 PM)29.74 "Hg (Aug 23, 3:00 PM)
Average71 °F59%29.96 "Hg
* Reported Aug 18 7:00 PM — Sep 2 7:30 PM, Taiyuan, Weather by CustomWeather, © 2014

Note: Actual official high and low records may vary slightly from our data, if they occured in-between our weather recording intervals... More about our weather records

Advertising

Taiyuan weather history for previous 24 hours

 ConditionsComfort  
Time TempWeatherWind HumidityBarometerVisibility
7:30 PM
Sep 2
70 °FPassing clouds.6 mph46%29.92 "HgN/A
7:00 PM72 °FPassing clouds.8 mph41%29.92 "HgN/A
6:30 PM73 °FPartly sunny.13 mph36%29.92 "HgN/A
6:00 PM73 °FPartly sunny.15 mph36%29.92 "HgN/A
5:30 PM73 °FScattered clouds.15 mph36%29.92 "HgN/A
5:00 PM75 °FScattered clouds.20 mph34%29.89 "HgN/A
4:30 PM75 °FScattered clouds.20 mph34%29.89 "HgN/A
4:00 PM73 °FScattered clouds.20 mph38%29.89 "HgN/A
3:30 PM75 °FScattered clouds.17 mph41%29.89 "HgN/A
3:00 PM72 °FScattered clouds.13 mph47%29.89 "HgN/A
2:30 PM72 °FScattered clouds.20 mph44%29.89 "HgN/A
2:00 PM72 °FPartly sunny.15 mph47%29.89 "HgN/A
1:30 PM72 °FThunderstorms. Scattered clouds.15 mph44%29.89 "HgN/A
1:00 PM72 °FScattered clouds.10 mph50%29.89 "HgN/A
12:30 PM72 °FScattered clouds.10 mph50%29.89 "HgN/A
12:00 PM72 °FThunderstorms. Scattered clouds.13 mph47%29.89 "HgN/A
11:30 AM73 °FScattered clouds.13 mph50%29.89 "HgN/A
11:00 AM72 °FScattered clouds.13 mph50%29.92 "HgN/A
10:30 AM70 °FScattered clouds.10 mph57%29.92 "HgN/A
10:00 AM70 °FFog.1 mph73%29.92 "Hg1 mi
9:30 AM68 °FFog.1 mph83%29.92 "Hg1 mi
9:00 AM66 °FFog.6 mph88%29.92 "Hg1 mi
8:30 AM64 °FFog.1 mph94%29.89 "Hg1 mi
8:00 AM63 °FFog.3 mph94%29.89 "Hg1 mi
7:30 AM63 °FFog.1 mph94%29.89 "Hg1 mi
7:00 AM63 °FFog.1 mph94%29.89 "Hg1 mi
6:30 AM63 °FFog.1 mph88%29.89 "Hg1 mi
6:00 AM63 °FFog.1 mph94%29.89 "Hg1 mi
5:30 AM63 °FFog.1 mph94%29.89 "Hg1 mi
4:30 AM64 °FFog.1 mph88%29.89 "Hg2 mi
4:00 AM64 °FFog.1 mph88%29.89 "Hg2 mi
3:30 AM64 °FFog.1 mph88%29.89 "Hg1 mi
3:00 AM64 °FSprinkles. Fog.1 mph88%29.89 "Hg1 mi
2:30 AM64 °FRain showers. Fog.No wind88%29.89 "Hg1 mi
2:00 AM64 °FRain showers. Fog.1 mph88%29.89 "Hg2 mi
1:30 AM64 °FLight rain. Fog.1 mph88%29.92 "Hg2 mi
1:00 AM64 °FLight rain. Fog.3 mph88%29.92 "Hg2 mi
12:30 AM66 °FLight rain. Haze.3 mph78%29.92 "Hg2 mi
12:00 AM66 °FLight rain. Haze.3 mph78%29.92 "Hg3 mi
11:30 PM
Sep 1
66 °FLight rain. Clear.3 mph78%29.92 "Hg4 mi
11:00 PM68 °FClear.3 mph69%29.92 "Hg4 mi
10:30 PM70 °FClear.3 mph64%29.92 "Hg5 mi
10:00 PM70 °FClear.3 mph60%29.92 "Hg10 mi
9:30 PM70 °FClear.3 mph64%29.92 "Hg10 mi
9:00 PM70 °FClear.1 mph64%29.92 "Hg10 mi
8:30 PM72 °FPassing clouds.3 mph57%29.92 "HgN/A
8:00 PM72 °FPassing clouds.3 mph57%29.92 "HgN/A
Weather by CustomWeather, © 2014

See weather overviewHow to use our weather pages